Content
SEND FEEDBACK

Daily
Averages
Monthly
Summary
United States of America

TAMUNING, GUAM


Home > North America > United States > Guam
Elevation: 250 feet     Latitude: 13 29N     Longitude: 144 47E

WEATHER
 
SELECT A DAY
Number of Records: 354,384;   Date Range: 1/1/95 - 11/22/14
 
SHARE

PRINT THIS DATA

[ ← Previous Day ]
WEATHER ALMANAC - NOVEMBER 15, 2013
[ Next Day → ]
[ °C ]   °F
Weather ElementAverageHighLow
Temperature77.4 °F84.6 °F (12:58 pm)73.4 °F (4:08 am)
Dewpoint73.2 °F77 °F (7:58 am)32 °F (5:34 am)
Humidity88.9 %100 % (2:54 am)21 % (5:34 am)
Barometer29.89 in29.95 in (9:29 am)29.81 in (2:58 pm)
Wind Speed13.8 mph25.3 mph (9:48 am)
Wind Gust32.2 mph (9:48 am)
Weather ElementAverage
Visibility8.1 mi
Wind DirectionENE (71.4 °)

Weather ElementTotal
Precipitation0.54 in
Cooling Degree Days14 (Base 65)
Growing Degree Days29 (Base 50)
Averaged from 76 records on November 15, 2013
WEATHER CONDITIONS BREAKOUT
WIND DIRECTION BREAKOUT
WEATHER BY HOUR - NOVEMBER 15, 2013
[ °C ]   °F
Local TimeTemperatureDewpointHumidityBarometerVisibilityWind DirectionWind SpeedGust SpeedPrecipitationEventsConditions
12:38 AM78.8 °F75.2 °F89 %29.91 in10.0 miNE (50°)9.2 mphMostly Cloudy
12:43 AM78.8 °F75.2 °F89 %29.91 in10.0 miNE (50°)10.4 mphScattered Clouds
12:58 AM77.5 °F75.6 °F94 %29.88 in10.0 miNE (50°)18.4 mph24.2 mphScattered Clouds
1:58 AM77.2 °F74.3 °F91 %29.86 in10.0 miENE (70°)16.1 mph23.0 mphMostly Cloudy
2:02 AM77.0 °F73.4 °F89 %29.89 in10.0 miENE (70°)15.0 mphLight Drizzle
2:11 AM75.2 °F73.4 °F94 %29.88 in10.0 miENE (60°)12.7 mphScattered Clouds
2:49 AM77.0 °F75.2 °F94 %29.88 in10.0 miENE (70°)19.6 mph27.6 mphLight Drizzle
2:54 AM75.2 °F75.2 °F100 %29.88 in10.0 miENE (60°)17.3 mph27.6 mphLight Drizzle
2:58 AM75.2 °F73.4 °F94 %29.86 in10.0 miENE (60°)17.3 mph27.6 mph0.00 inLight Drizzle
2:59 AM75.2 °F73.4 °F94 %29.88 in10.0 miENE (60°)16.1 mph27.6 mphMostly Cloudy
3:06 AM75.2 °F71.6 °F89 %29.88 in10.0 miENE (70°)12.7 mphLight Drizzle
3:16 AM75.2 °F71.6 °F89 %29.88 in10.0 miENE (70°)15.0 mph20.7 mphMostly Cloudy
3:41 AM75.2 °F73.4 °F94 %29.88 in8.0 miENE (60°)19.6 mphRainLight Rain
3:46 AM75.2 °F75.2 °F100 %29.89 in5.0 miNE (50°)21.9 mphRainLight Rain
3:58 AM73.6 °F72.5 °F96 %29.86 in5.0 miNE (50°)16.1 mph0.04 inRainRain
4:08 AM73.4 °F73.4 °F100 %29.89 in6.0 miEast (80°)12.7 mphRainLight Rain
4:11 AM75.2 °F73.4 °F94 %29.89 in6.0 miEast (90°)15.0 mphRainLight Rain
4:16 AM73.4 °F73.4 °F100 %29.88 in7.0 miEast (100°)9.2 mphRainLight Rain
4:21 AM73.4 °F73.4 °F100 %29.88 in8.0 miEast (100°)6.9 mphScattered Clouds
4:37 AM73.4 °F73.4 °F100 %29.89 in7.0 miEast (90°)11.5 mphRainLight Rain
4:42 AM75.2 °F73.4 °F94 %29.88 in3.0 miENE (70°)11.5 mph19.6 mphRainHeavy Rain
4:47 AM73.4 °F73.4 °F100 %29.88 in3.0 miENE (70°)8.1 mph19.6 mphRainLight Rain
4:52 AM75.2 °F73.4 °F94 %29.89 in6.0 miENE (60°)18.4 mph25.3 mphRainLight Rain
4:58 AM74.7 °F73.4 °F96 %29.86 in5.0 miENE (60°)15.0 mph25.3 mph0.12 inRainLight Rain
5:03 AM75.2 °F73.4 °F94 %29.88 in7.0 miEast (90°)10.4 mphRainLight Rain
5:13 AM75.2 °F75.2 °F100 %29.89 in8.0 miESE (110°)9.2 mphRainLight Rain
5:18 AM75.2 °F75.2 °F100 %29.89 in6.0 miEast (100°)4.6 mphRainLight Rain
5:23 AM75.2 °F75.2 °F100 %29.89 in4.0 miEast (100°)8.1 mphRainLight Rain
5:28 AM75.2 °F75.2 °F100 %29.89 in5.0 miESE (110°)11.5 mphRainLight Rain
5:33 AM75.2 °F75.2 °F100 %29.89 in7.0 miEast (100°)10.4 mphRainLight Rain
5:34 AM75.2 °F32.0 °F21 %29.90 in9.0 miEast (100°)10.4 mphOvercast
5:37 AM75.2 °F32.0 °F21 %29.89 in7.0 miESE (110°)12.7 mphRainLight Rain
5:42 AM75.2 °F75.2 °F100 %29.90 in4.0 miESE (110°)15.0 mph18.4 mphRainRain
5:47 AM75.2 °F75.2 °F100 %29.90 in1.5 miESE (110°)12.7 mphRainHeavy Rain
5:52 AM75.2 °F75.2 °F100 %29.90 in1.5 miEast (90°)13.8 mphRainLight Rain
5:58 AM75.2 °F75.2 °F100 %29.87 in6.0 miEast (100°)9.2 mph0.21 inRainLight Rain
6:02 AM75.2 °F75.2 °F100 %29.91 in10.0 miENE (70°)6.9 mphMostly Cloudy
6:11 AM75.2 °F75.2 °F100 %29.91 in10.0 miESE (110°)6.9 mphRainLight Rain
6:16 AM75.2 °F75.2 °F100 %29.91 in8.0 miEast (100°)6.9 mphRainLight Rain
6:31 AM77.0 °F75.2 °F94 %29.91 in8.0 miEast (90°)10.4 mphRainLight Rain
6:35 AM77.0 °F75.2 °F94 %29.91 in10.0 miEast (80°)12.7 mphMostly Cloudy
6:58 AM77.7 °F75.7 °F94 %29.89 in10.0 miEast (90°)12.7 mph0.03 inScattered Clouds
7:18 AM78.8 °F75.2 °F89 %29.93 in10.0 miEast (90°)9.2 mphMostly Cloudy
7:24 AM77.0 °F75.2 °F94 %29.93 in9.0 miEast (100°)15.0 mph19.6 mphRainLight Rain
7:29 AM77.0 °F75.2 °F94 %29.93 in9.0 miEast (90°)13.8 mph19.6 mphRainLight Rain
7:34 AM77.0 °F75.2 °F94 %29.93 in7.0 miEast (90°)8.1 mph19.6 mphRainLight Rain
7:44 AM77.0 °F75.2 °F94 %29.94 in6.0 miENE (70°)15.0 mph21.9 mphRainLight Rain
7:49 AM77.0 °F75.2 °F94 %29.94 in2.0 miEast (80°)10.4 mph21.9 mphRainHeavy Rain
7:58 AM77.0 °F77.0 °F100 %29.91 in3.0 miENE (70°)9.2 mph0.08 inRainLight Rain
8:00 AM77.0 °F77.0 °F100 %29.94 in8.0 miENE (70°)9.2 mphScattered Clouds
8:58 AM81.0 °F76.3 °F86 %29.92 in10.0 miENE (60°)16.1 mph21.9 mph0.00 inPartly Cloudy
9:29 AM80.6 °F77.0 °F89 %29.95 in10.0 miNE (50°)18.4 mphRainLight Rain
9:44 AM78.8 °F75.2 °F89 %29.94 in10.0 miENE (60°)15.0 mphScattered Clouds
9:48 AM80.6 °F75.2 °F84 %29.95 in5.0 miNE (40°)25.3 mph32.2 mphRainLight Rain
9:58 AM76.8 °F75.2 °F95 %29.91 in3.0 miNE (40°)12.7 mph32.2 mph0.05 inRainLight Rain
10:05 AM78.8 °F77.0 °F94 %29.94 in10.0 miNE (50°)13.8 mphPartly Cloudy
10:25 AM82.4 °F77.0 °F84 %29.93 in10.0 miNE (50°)20.7 mph27.6 mphRainLight Rain
10:36 AM80.6 °F77.0 °F89 %29.93 in10.0 miNE (50°)17.3 mphPartly Cloudy
10:58 AM82.0 °F76.6 °F84 %29.89 in10.0 miNE (50°)19.6 mph24.2 mph0.01 inPartly Cloudy
11:58 AM82.4 °F74.7 °F77 %29.87 in10.0 miENE (60°)19.6 mphPartly Cloudy
12:58 PM84.6 °F75.4 °F74 %29.84 in10.0 miENE (60°)20.7 mph24.2 mphPartly Cloudy
1:58 PM82.6 °F75.0 °F78 %29.82 in10.0 miENE (60°)17.3 mph23.0 mphPartly Cloudy
2:58 PM83.7 °F74.5 °F74 %29.81 in10.0 miENE (60°)19.6 mphPartly Cloudy
3:58 PM82.8 °F74.8 °F77 %29.81 in10.0 miENE (60°)18.4 mphScattered Clouds
4:33 PM82.4 °F73.4 °F74 %29.84 in10.0 miNE (50°)16.1 mphMostly Cloudy
4:38 PM80.6 °F73.4 °F79 %29.84 in10.0 miENE (60°)15.0 mphMostly Cloudy
4:58 PM81.3 °F73.9 °F78 %29.82 in10.0 miENE (60°)17.3 mphPartly Cloudy
5:33 PM80.6 °F73.4 °F79 %29.85 in10.0 miENE (60°)17.3 mphMostly Cloudy
5:38 PM80.6 °F73.4 °F79 %29.85 in10.0 miENE (60°)16.1 mphScattered Clouds
5:58 PM79.3 °F71.8 °F78 %29.83 in10.0 miNE (50°)12.7 mphPartly Cloudy
6:58 PM78.8 °F71.4 °F78 %29.84 in10.0 miNE (50°)15.0 mphPartly Cloudy
7:58 PM79.0 °F70.3 °F75 %29.86 in10.0 miNE (40°)15.0 mphClear
8:58 PM78.6 °F71.1 °F78 %29.87 in10.0 miNE (50°)12.7 mphClear
9:58 PM79.0 °F70.9 °F76 %29.87 in10.0 miNE (50°)13.8 mphScattered Clouds
10:58 PM77.5 °F70.7 °F79 %29.86 in10.0 miNE (50°)11.5 mphPartly Cloudy
11:58 PM78.1 °F70.3 °F77 %29.86 in10.0 miNE (50°)13.8 mphClear
Hourly data recorded from PGUA, located miles away from Tamuning, Guam







STORIES FROM OUR PARTNERS